Location: CNYAC Observatory
(43.2150°N, 74.9500°W)
Time: 00:06:38
(UTC-05:00)

Daily predictions for brighter satellites

Satellite Brightness Start Highest point End
(mag) Time Altitude Azimuth Time Altitude Azimuth Time Altitude Azimuth
ADEOS II 2.7 03:48:33 10° NNE 03:52:50 52° ENE 03:52:50 52° ENE
Cosmos 2369 Rocket 2.5 03:58:18 63° NE 03:58:18 63° NE 04:03:05 10° NNE
ATLAS CENTAUR R/B 3.2 03:57:39 82° SSW 03:57:39 82° SSW 04:11:09 10° SE
USA 234 3.2 03:59:32 10° NE 04:06:05 75° SE 04:07:05 64° SSW
Okean-O 4.1 04:05:35 10° NNE 04:09:41 35° E 04:11:37 24° SE
ADEOS Rocket 4.4 04:11:49 10° N 04:15:37 26° NNW 04:15:37 26° NNW
Lacrosse 5 2.5 04:21:27 46° SSE 04:22:12 50° SE 04:27:07 10° NE
Lacrosse 5 rocket 3.9 04:25:35 11° N 04:25:44 11° N 04:26:44 10° NNE
Cosmos 407 Rocket 3.7 04:22:12 10° NNW 04:27:35 74° ENE 04:32:54 10° SSE
Cosmos 2263 4.1 04:39:27 57° WSW 04:40:23 67° WNW 04:46:00 10° NNE
ATLAS 5 CENTAUR R/B 1.7 04:40:35 67° WSW 04:41:14 82° NW 04:46:26 10° NE
Cosmos 1867 3.9 04:42:02 44° NW 04:42:04 44° NW 04:47:20 10° NNE
CZ-4B R/B 3.4 04:37:54 10° N 04:43:16 48° WNW 04:43:24 48° WNW
ERS-2 4.1 04:40:10 10° N 04:41:25 20° N 04:41:25 20° N
RUBIN 8/PSLV 4.4 04:42:30 10° NNE 04:46:56 85° WNW 04:48:22 42° SSW
Cosmos 1943 Rocket 2.0 04:46:13 36° SSW 04:48:34 81° WNW 04:54:09 10° NNE
Cosmos 1703 Rocket 3.7 04:45:01 10° S 04:49:18 72° E 04:53:40 10° NNE
Meteor 2-10 Rocket 3.6 04:46:28 10° S 04:51:26 72° E 04:56:28 10° NNE
Cosmos 1140 Rocket 4.3 04:46:22 10° N 04:51:28 51° ENE 04:56:34 10° SE
Cosmos 1190 Rocket 4.0 04:50:32 25° NW 04:53:27 57° WSW 04:58:35 10° S
Okean O Rocket 3.7 04:50:08 10° NNW 04:50:54 14° NNW 04:50:54 14° NNW
Cosmos 972 4.3 04:54:17 19° SSW 04:57:51 86° WNW 05:03:03 10° NNE
BREEZE M DEB (TANK) 4.4 04:52:59 27° W 05:01:52 68° NNW 05:06:56 10° ENE
Meteor 1-26 Rocket 4.1 05:01:11 10° SSW 05:06:54 80° W 05:12:34 10° N
Cosmos 2056 Rocket 3.9 05:09:10 34° W 05:10:24 39° WNW 05:15:17 10° N
SJ-6F 4.3 05:07:10 10° N 05:11:20 75° WNW 05:15:26 10° SSW
Cosmos 2221 Rocket 3.5 05:08:05 10° S 05:12:38 81° W 05:17:14 10° N
NOSS 3 (A) 4.5 05:13:03 50° SSW 05:13:41 83° SE 05:16:55 10° NE
COSMO-SKYMED 1 2.5 05:10:04 10° SSE 05:14:24 88° E 05:18:47 10° NNW
Meteor 1-25 Rocket 4.4 05:09:27 10° N 05:15:19 78° E 05:21:09 10° SSE
NOAA 6 3.9 05:15:41 10° N 05:20:52 75° WNW 05:25:59 10° SSW
Cosmos 1954 Rocket 3.9 05:15:47 10° NNW 05:21:04 68° WSW 05:26:21 10° S
Meteor 1-31 Rocket 3.4 05:18:37 10° N 05:22:12 35° WNW 05:23:12 30° WSW
Cosmos 2297 Rocket 4.5 05:18:05 10° N 05:22:27 22° NE 05:26:47 10° E
SL-12 R/B (Aux Motor) 4.0 05:22:06 33° WNW 05:23:22 74° SSW 05:25:30 10° ESE
Ariane Rocket 3.8 05:21:01 10° NNE 05:26:01 53° E 05:30:58 10° S
Cosmos 1420 Rocket 4.1 05:23:09 10° SSW 05:28:20 80° ESE 05:33:32 10° NNE
Abrixas 3.3 05:28:55 29° NW 05:29:38 34° NNW 05:32:20 10° NE
ADEOS II 3.4 05:29:22 10° NNW 05:33:01 19° WNW 05:33:48 19° WNW
Cosmos 2219 3.2 05:28:28 10° NNW 05:34:11 87° WSW 05:39:50 10° SSE
Thor Agena Rocket 4.2 05:30:51 10° SSW 05:35:32 33° W 05:40:13 10° NNW
Cosmos 1745 Rocket 3.9 05:29:57 10° N 05:36:07 78° W 05:42:13 10° S
DMSP B5D1-3 4.4 05:36:19 10° S 05:41:22 68° WSW 05:46:29 10° NNW
Cosmos 2369 Rocket 3.6 05:40:07 16° WNW 05:42:06 19° NW 05:46:04 10° N
Cosmos 2227 Rocket 3.7 05:37:11 10° N 05:42:28 37° ENE 05:47:42 10° SE
Cosmos 1386 Rocket 4.4 05:39:06 10° N 05:45:09 86° W 05:51:16 10° S
Tiangong 1 1.6 05:43:28 16° SW 05:45:31 47° SSE 05:48:23 10° E
Okean-O 3.8 05:42:27 10° NNW 05:45:58 23° WNW 05:49:14 11° WSW
Okean 1-7 3.4 05:42:42 10° SSW 05:46:44 39° WNW 05:50:46 10° N
USA 234 3.8 05:42:46 10° NE 05:48:50 42° NNW 05:54:27 12° W
Cosmos 1782 Rocket 4.4 05:47:57 10° NNW 05:51:48 28° W 05:55:35 10° SSW
Cosmos 1452 Rocket 3.9 05:46:53 10° SW 05:51:52 41° WNW 05:56:52 10° N
CZ-4C R/B 2.2 05:46:42 10° SW 05:51:59 68° NW 05:58:02 10° NNE
Cosmos 1656 Rocket 3.9 05:51:49 10° SW 05:57:20 50° WNW 06:02:52 10° NNE
Cosmos 1741 Rocket 4.0 05:56:48 10° NNW 06:01:59 63° WSW 06:07:09 10° S
SKYMED 2 4.4 05:58:54 10° SSW 06:02:38 28° W 06:06:23 10° NW
Cosmos 1300 Rocket 4.1 05:59:48 10° N 06:04:14 66° E 06:08:37 10° SSE
Lacrosse 5 2.6 06:00:42 10° W 06:05:19 37° NNW 06:10:03 10° NE
Lacrosse 5 rocket 2.7 06:02:46 10° NNW 06:05:59 29° NNE 06:09:11 10° E
Okean 2 Rocket 4.1 06:08:03 10° NW 06:11:34 24° W 06:15:03 10° SW
USA 81 4.3 06:07:14 10° SSW 06:12:17 47° W 06:17:23 10° N
Meteor 1-27 Rocket 4.0 06:07:10 10° S 06:12:54 83° E 06:18:49 10° NNE
ATLAS 3B R/B 3.1 06:12:28 10° SSW 06:20:03 83° ESE 06:27:23 10° NE
Cosmos 1674 Rocket 3.5 06:15:57 10° SSW 06:20:20 73° W 06:24:47 10° N
